VKG557 ENGM-LEMG

Flight info

Callsign VKG557
Flight time N/A
Altitude 34000
Route VIPPA DCT UPGAS DCT TIPAN DCT EZTIM UM185 DIGSU N866 GASGU/N0455F350 N866 SAM/N0453F340 N63 LELNA/N0458F350 DCT NOVAN DCT DELOG DCT CRISA N864 MOCEQ DCT VULPE
Aircraft A321/M-SDE3FGHIRWY/LB1

Departure

Time 2026-05-05 06:55
Airport Oslo-Gardermoen International Airport (ENGM)

Arrival

Time N/A
Airport Málaga-Costa del Sol Airport (LEMG)
Time Latitude Longitude Altitude Speed Heading
2026-05-05 06:39 60.19309 11.10493 685 ft 0 kts 16°
2026-05-05 06:45 60.19307 11.10491 685 ft 2 kts 16°
2026-05-05 06:45 60.19285 11.10478 685 ft 2 kts 15°
2026-05-05 06:45 60.19265 11.10461 682 ft 4 kts 69°
2026-05-05 06:46 60.19267 11.10414 681 ft 3 kts 106°
2026-05-05 06:46 60.19264 11.10432 679 ft 4 kts 106°
2026-05-05 06:46 60.19263 11.10442 678 ft 0 kts 106°
2026-05-05 06:48 60.19263 11.10443 677 ft 1 kts 106°
2026-05-05 06:49 60.19244 11.10574 681 ft 17 kts 106°
2026-05-05 06:49 60.19214 11.10789 682 ft 15 kts 105°
2026-05-05 06:49 60.19186 11.10981 682 ft 13 kts 106°
2026-05-05 06:49 60.19161 11.11149 681 ft 12 kts 106°
2026-05-05 06:50 60.19113 11.11268 683 ft 12 kts 179°
2026-05-05 06:50 60.18991 11.11200 683 ft 21 kts 197°
2026-05-05 06:50 60.18852 11.11121 683 ft 20 kts 196°
2026-05-05 06:50 60.18714 11.11043 683 ft 21 kts 194°
2026-05-05 06:51 60.18579 11.10964 682 ft 20 kts 195°
2026-05-05 06:51 60.18450 11.10890 681 ft 19 kts 196°
2026-05-05 06:51 60.18323 11.10815 679 ft 18 kts 196°
2026-05-05 06:51 60.18201 11.10746 678 ft 18 kts 195°
2026-05-05 06:52 60.18084 11.10677 677 ft 17 kts 197°
2026-05-05 06:52 60.17974 11.10614 676 ft 16 kts 195°
2026-05-05 06:52 60.17874 11.10556 676 ft 14 kts 197°
2026-05-05 06:52 60.17786 11.10507 677 ft 12 kts 196°
2026-05-05 06:53 60.17720 11.10526 676 ft 8 kts 132°
2026-05-05 06:53 60.17705 11.10604 677 ft 4 kts 107°
2026-05-05 06:53 60.17692 11.10705 680 ft 12 kts 103°
2026-05-05 06:53 60.17700 11.10842 678 ft 9 kts 43°
2026-05-05 06:54 60.17735 11.10870 680 ft 0 kts 17°
2026-05-05 06:54 60.17815 11.10919 680 ft 42 kts 17°
2026-05-05 06:54 60.18327 11.11210 683 ft 107 kts 15°
2026-05-05 06:55 60.19215 11.11726 684 ft 156 kts 17°
2026-05-05 06:55 60.20336 11.12383 1039 ft 168 kts 15°
2026-05-05 06:55 60.21204 11.13900 1749 ft 175 kts 64°
2026-05-05 06:55 60.21468 11.16342 2346 ft 179 kts 81°
2026-05-05 06:56 60.21640 11.18875 2717 ft 192 kts 81°
2026-05-05 06:56 60.21820 11.21651 2983 ft 207 kts 80°
2026-05-05 06:56 60.22051 11.24640 3155 ft 226 kts 78°
2026-05-05 06:56 60.22322 11.27890 3432 ft 242 kts 84°
2026-05-05 06:57 60.21944 11.31175 3973 ft 248 kts 122°
2026-05-05 06:57 60.20624 11.33522 4304 ft 265 kts 155°
2026-05-05 06:57 60.18871 11.34760 5030 ft 269 kts 167°
2026-05-05 06:57 60.17028 11.35508 5823 ft 271 kts 178°
2026-05-05 06:58 60.15185 11.35059 6596 ft 267 kts 200°
2026-05-05 06:58 60.13508 11.33473 7350 ft 267 kts 214°
2026-05-05 06:58 60.11897 11.31569 8095 ft 270 kts 212°
2026-05-05 06:58 60.10244 11.29733 8848 ft 273 kts 211°
2026-05-05 06:59 60.08561 11.27914 9600 ft 276 kts 211°
2026-05-05 06:59 60.06855 11.26084 10203 ft 283 kts 211°
2026-05-05 06:59 60.05052 11.24139 10360 ft 305 kts 211°
2026-05-05 06:59 60.03120 11.22043 10499 ft 327 kts 211°
2026-05-05 07:00 60.01060 11.19803 10631 ft 347 kts 211°
2026-05-05 07:00 59.98878 11.17434 10747 ft 366 kts 211°
2026-05-05 07:00 59.96605 11.14974 11082 ft 375 kts 212°